User: anonymous   Login
Location: Oberwangen
(47.4286°N, 8.9679°E)
Time: 15:38:36
(UTC+00:00)
Language:

Cosmos 2233 Rocket - Orbit

View from above orbital plane
View from above orbital plane
View from above satellite
View from above satellite

Ground track
Ground track

The orbit data is extracted from the following two-line orbital elements,

1 22488U 93008B   21262.82627389  .00000022  00000-0  62063-5 0  9998
2 22488  82.9472   0.7411 0025410 182.6521 296.3596 13.77728177438463
Epoch (UTC): 19 September 2021 19:49:50
Eccentricity: 0.0025410
inclination: 82.9472°
perigee height: 953 km
apogee height: 990 km
right ascension of ascending node: 0.7411°
argument of perigee: 182.6521°
revolutions per day: 13.77728177
mean anomaly at epoch: 296.3596°
orbit number at epoch: 43846

The dashed part of the orbit path shows where the satellite is in the earth's shadow,  

DLR